Flag for Turkey Weather past 2 weeks in Samsun, Turkey

Now
61 °F

Sprinkles. Cloudy.


Feels Like: 61 °F
Forecast: 58 / 63 °F
Wind: 2 mph from Northwest

Location: Samsun / Carsamba

Current Time: May 29, 2015 at 7:58:32 AM

Latest Report: May 29, 2015 at 6:50 AM


Visibility: 4 mi

Pressure: 29.77 "Hg

Humidity: 94%

Dew point: 59 °F

Location of SamsunLocation

Historic Weather in Samsun — Graph

°F

Samsun temperature yesterday

Maximum temperature yesterday: 72 °F (at 8:50 AM)
Minimum temperature yesterday: 61 °F (at 3:50 AM)
Average temperature yesterday: 65 °F

Past Weeks' High & Low Weather Summary

 TemperatureHumidityPressure
High79 °F (May 15, 11:50 AM)100% (May 18, 1:50 AM)30.12 "Hg (May 18, 1:50 AM)
Low43 °F (May 15, 4:50 AM)23% (May 15, 3:50 PM)29.59 "Hg (May 27, 8:00 PM)
Average65 °F80%29.89 "Hg
* Reported May 14 5:50 AM — May 29 5:50 AM, Samsun, Weather by CustomWeather, © 2015

Note: Actual official high and low records may vary slightly from our data, if they occured in-between our weather recording intervals... More about our weather records

Advertising

Samsun weather history for previous 24 hours

 ConditionsComfort  
Time TempWeatherWind HumidityBarometerVisibility
5:50 AM
Fri, May 29
61 °FPartly cloudy.7 mph94%29.77 "HgN/A
4:50 AM61 °FSprinkles. Mostly cloudy.6 mph94%29.77 "Hg5 mi
3:50 AM63 °FPartly cloudy.3 mph88%29.77 "HgN/A
2:50 AM63 °FSprinkles. Partly cloudy.3 mph88%29.77 "Hg5 mi
1:50 AM63 °FPartly cloudy.1 mph94%29.77 "HgN/A
12:50 AM63 °FPartly cloudy.1 mph94%29.77 "HgN/A
11:50 PM
Thu, May 28
63 °FPartly cloudy.2 mph94%29.77 "HgN/A
10:50 PM63 °FPartly cloudy.2 mph100%29.77 "Hg5 mi
9:50 PM63 °FPartly cloudy.No wind100%29.77 "Hg6 mi
8:50 PM63 °FBroken clouds.3 mph94%29.77 "HgN/A
7:50 PM63 °FBroken clouds.7 mph94%29.77 "HgN/A
6:50 PM64 °FSprinkles. Partly sunny.7 mph94%29.74 "Hg5 mi
5:50 PM66 °FSprinkles. Partly sunny.3 mph83%29.74 "Hg5 mi
4:50 PM66 °FPartly sunny.6 mph78%29.74 "HgN/A
3:50 PM68 °FBroken clouds.8 mph78%29.71 "HgN/A
3:03 PM68 °FSprinkles. Broken clouds.9 mph78%29.71 "Hg5 mi
2:50 PM66 °FBroken clouds.8 mph78%29.71 "HgN/A
1:50 PM70 °FBroken clouds.12 mph73%29.68 "HgN/A
12:50 PM72 °FBroken clouds.5 mph78%29.65 "HgN/A
11:50 AM68 °FBroken clouds.9 mph88%29.65 "HgN/A
10:50 AM70 °FBroken clouds.7 mph73%29.65 "HgN/A
9:50 AM70 °FScattered clouds.9 mph78%29.65 "HgN/A
8:50 AM72 °FScattered clouds.6 mph73%29.65 "HgN/A
7:50 AM68 °FScattered clouds.2 mph83%29.62 "HgN/A
Weather by CustomWeather, © 2015

See weather overviewHow to use our weather pages